Location: ??
(35.3149°N, 139.6204°E)
Time: 11:09:09
(UTC+00:00)

Cosmos 2360 Rocket - Pass Details

Date: 03 August 2024
Orbit: 834 x 843 km, 71.0° (Epoch: 10 September)

Event Time Altitude Azimuth Distance (km) Brightness Sun altitude
Exits shadow 18:15:33 11° 288° (WNW) 2,361 4.2 -18.0°
Maximum altitude 18:17:21 13° 307° (NW) 2,254 4.3 -17.7°
Drops below altitude 10° 18:19:53 10° 334° (NNW) 2,466 4.8 -17.3°
Sets 18:23:53 0° 2° (N) 3,403 5.9 -16.6°
